Wind_Speed
3 4 5 4 4 4 3 4 3 3 3 3 3 3 3 3 3 4 4 4 5 6 7 7 8 9 10 10 11 11 11 12 12 12 12 12 12 13 13 12 12 12 12
4 4 5 5 5 5 4 4 4 4 4 3 3 4 4 3 3 4 5 5 6 6 7 7 8 8 9 10 10 10 10 11 11 11 13 13 13 13 13 13 13 13 12
5 6 6 6 6 6 6 6 6 6 5 4 4 4 5 5 4 5 6 6 6 7 7 8 8 9 10 10 10 10 11 11 12 13 13 13 14 13 14 13 13 13 14
6 6 6 7 7 7 7 7 7 6 6 5 5 5 5 6 5 6 6 6 6 7 7 8 9 9 9 10 11 11 11 11 12 12 12 13 14 15 14 14 15 15 15
6 7 7 7 7 7 8 8 8 7 7 7 7 7 7 7 6 6 6 7 7 7 7 8 8 9 10 9 10 10 11 12 12 12 13 14 15 15 15 15 16 17 16
6 7 7 6 7 7 9 9 9 9 8 8 8 8 8 9 8 7 7 7 8 8 8 9 9 9 9 9 9 9 10 10 12 13 14 14 16 16 16 16 17 17 17
8 7 7 7 8 9 10 10 10 10 10 10 10 10 10 9 9 9 9 9 9 9 10 10 10 10 10 10 10 11 11 11 12 13 14 15 16 16 17 17 17 17 17
9 9 9 9 9 10 11 11 10 11 11 11 11 10 10 10 10 10 10 10 10 11 11 11 11 11 11 12 12 12 13 13 13 14 15 15 16 17 18 18 18 19 19
10 10 10 11 11 11 11 11 11 11 12 12 11 11 11 11 11 12 12 12 12 12 11 12 12 13 13 13 13 14 14 14 15 15 16 16 16 16 17 18 19 19 19
11 12 12 12 12 12 12 12 12 12 12 12 12 13 12 12 12 13 13 13 13 12 12 12 13 14 14 14 15 15 16 16 16 16 17 18 17 18 18 18 19 19 18
13 13 13 13 13 13 13 13 13 14 13 13 13 13 13 13 14 14 14 14 14 14 14 14 14 15 15 15 16 17 17 18 18 17 18 19 19 18 19 19 20 20 19
14 14 14 14 15 15 14 14 15 15 15 14 14 14 14 14 14 15 15 15 16 16 16 16 16 17 17 18 18 18 19 20 20 19 19 19 19 19 19 20 20 20 20
16 15 15 15 16 16 16 15 16 16 16 16 15 15 15 16 16 16 16 16 17 17 17 18 18 18 19 19 20 21 20 20 20 20 20 19 19 19 19 20 20 20 20
17 17 17 17 16 17 16 16 17 17 17 16 17 16 16 17 17 17 17 17 18 18 18 19 20 20 20 21 21 22 22 21 22 22 21 20 20 20 20 20 21 21 21
18 18 18 18 18 18 18 18 18 18 17 18 18 18 18 18 18 18 19 19 19 20 20 20 21 21 21 21 21 22 22 22 22 23 23 22 21 21 20 21 21 22 22
20 20 19 19 19 19 20 20 20 20 20 20 20 20 20 20 20 20 20 21 21 21 22 21 22 21 22 22 22 23 22 22 23 23 24 23 23 22 21 21 21 22 21
21 21 21 21 21 21 22 22 22 22 22 22 22 22 22 21 21 21 21 22 22 22 23 23 23 23 23 24 24 24 23 23 23 23 23 23 23 22 22 23 23 23 23
22 22 22 22 22 22 23 23 23 23 24 24 24 23 23 22 23 23 23 23 23 23 24 24 23 24 24 24 24 24 24 24 24 24 24 24 24 23 23 24 24 23 23
24 24 23 23 23 23 23 24 24 25 25 25 26 25 25 25 25 24 24 24 25 25 25 25 25 25 25 25 25 25 25 25 25 25 25 25 25 24 24 25 25 24 24
25 25 24 23 23 23 23 24 25 25 25 25 25 26 26 26 26 25 25 25 25 25 25 26 26 25 25 25 25 26 26 26 25 25 26 26 26 26 25 25 25 26 26
25 24 23 23 23 23 23 23 24 24 24 25 26 27 27 27 27 26 26 26 26 26 26 27 27 26 25 25 25 26 26 26 26 27 27 27 27 27 27 27 27 27 27
24 23 22 23 23 23 23 24 24 24 25 25 26 27 28 28 28 28 27 27 27 27 27 27 27 26 26 26 26 26 26 26 26 27 27 27 26 27 27 27 27 28 29
23 23 23 23 23 24 24 25 25 25 26 27 26 26 27 28 29 28 29 29 28 28 28 28 28 27 26 26 26 27 27 27 26 27 27 27 27 27 27 28 28 29 28
25 25 24 23 24 24 25 25 25 26 27 27 28 27 27 28 28 28 28 29 29 29 29 29 29 28 27 27 26 27 27 27 27 27 28 28 28 28 28 28 28 28 29
26 26 25 25 25 25 25 25 25 26 26 27 27 28 28 28 28 28 28 29 29 29 30 30 29 28 27 27 27 27 27 27 27 27 28 28 28 29 29 29 29 29 29
26 26 25 25 25 26 26 26 26 26 27 27 27 27 28 28 28 28 28 28 28 28 29 29 29 29 28 28 28 28 27 27 27 27 27 28 29 29 29 29 29 29 29
Wind_Direction
291 290 290 274 261 265 252 246 241 243 265 268 256 259 273 286 290 275 261 254 249 241 241 239 234 236 240 243 247 249 248 246 244 243 246 252 253 251 250 251 251 250 249
295 283 285 271 261 261 256 252 250 245 252 264 264 260 262 278 278 286 273 266 262 257 252 246 244 244 247 249 252 252 256 254 251 250 252 253 252 251 247 253 256 252 252
299 285 278 271 263 262 261 260 259 258 256 263 268 270 272 275 273 280 282 275 267 265 267 265 263 262 256 257 257 257 258 257 254 253 255 256 253 254 253 255 256 257 257
299 291 281 271 261 256 256 261 261 260 262 268 270 271 273 279 281 282 281 282 278 274 272 271 267 265 266 269 266 265 263 259 261 260 258 259 257 256 256 259 256 258 260
299 291 284 275 268 259 257 261 262 265 267 269 270 272 270 275 285 282 280 277 277 276 275 278 274 274 272 271 268 269 267 266 268 267 265 262 260 259 259 261 260 260 262
297 294 284 276 269 263 261 262 264 265 268 270 270 271 272 276 277 279 282 276 271 271 277 280 278 276 276 274 274 273 272 271 271 272 271 268 265 262 262 263 263 263 263
288 288 282 278 271 268 266 265 265 265 267 271 274 273 273 272 271 274 276 277 274 273 278 278 277 273 273 274 276 280 278 278 274 273 272 269 267 265 265 265 264 265 264
281 283 283 281 275 270 268 264 263 265 268 272 273 273 276 275 271 273 272 271 273 275 276 276 277 276 274 274 274 278 280 281 278 276 275 272 269 267 267 265 264 264 264
284 283 283 280 276 273 271 265 262 264 267 270 274 277 278 275 274 273 273 271 273 275 276 277 277 276 279 279 277 275 276 277 279 280 276 273 272 271 271 268 267 266 266
285 285 283 279 276 274 271 266 264 263 267 269 272 274 276 275 273 272 272 272 272 273 275 278 277 276 279 281 278 276 276 277 278 280 277 274 271 268 270 272 270 268 265
284 285 284 280 277 274 270 266 267 267 269 270 272 273 275 274 274 272 269 272 274 274 275 276 275 276 278 281 280 278 277 276 278 280 279 274 271 269 270 271 270 269 266
283 283 283 280 277 275 275 269 271 271 270 270 270 271 273 273 273 273 271 270 273 275 276 275 274 276 277 279 279 278 277 277 276 278 278 275 270 268 269 269 270 269 267
282 281 281 279 277 275 275 273 271 270 271 270 268 270 272 272 273 273 272 272 273 275 275 275 276 278 279 279 280 278 277 276 276 277 278 276 273 271 271 270 270 268 268
280 282 281 280 278 276 274 273 272 271 271 270 268 269 272 273 274 276 274 274 274 274 275 276 277 279 280 280 279 278 276 274 275 276 276 277 275 273 270 269 269 267 268
280 281 278 278 277 277 276 274 273 272 270 270 269 270 272 273 274 276 276 276 276 275 276 277 278 279 280 280 279 277 275 274 275 277 279 277 277 276 275 271 269 267 266
278 279 277 276 275 275 273 272 272 270 269 269 269 271 273 273 273 274 276 277 276 275 275 277 277 277 279 280 281 278 275 275 276 278 280 278 278 278 278 275 272 269 267
274 276 276 276 274 274 272 271 271 270 269 270 271 271 272 272 273 273 275 276 276 275 276 276 276 277 278 279 280 279 275 275 277 278 279 278 277 277 278 278 275 271 269
272 273 274 275 275 274 273 273 271 270 270 270 271 270 271 272 273 272 273 274 274 275 276 276 277 278 278 278 281 279 276 276 276 276 276 276 276 276 277 279 276 275 275
273 273 274 275 275 274 273 272 271 270 269 269 270 270 271 271 272 272 272 272 273 275 276 278 279 279 279 279 279 280 277 276 276 276 276 276 276 276 277 277 277 277 277
275 275 274 274 275 275 274 272 271 270 270 269 270 271 271 271 271 272 271 271 273 275 275 277 279 280 280 280 279 280 278 275 275 276 276 277 278 278 277 276 276 276 276
274 274 273 275 275 275 276 275 273 272 271 271 271 270 271 271 272 272 270 271 272 273 274 277 278 278 279 280 279 280 279 275 275 275 277 278 278 278 277 276 276 276 275
270 270 272 274 275 276 277 277 275 274 273 273 273 270 270 270 272 272 271 271 271 271 273 275 277 278 278 279 279 279 279 278 277 276 277 278 278 279 279 278 277 277 277
267 269 272 273 275 276 276 276 275 275 275 273 274 273 271 269 271 272 271 270 271 272 273 275 276 278 278 277 278 279 279 280 280 277 277 277 277 277 278 278 279 278 277
268 269 272 273 275 275 276 277 275 274 275 276 275 273 272 272 272 271 271 271 270 271 272 273 275 276 276 277 278 278 279 278 278 278 277 278 277 277 278 280 279 279 277
268 269 271 272 273 274 276 277 278 276 276 276 275 273 272 272 272 271 271 271 270 270 270 272 273 273 273 275 277 278 279 279 278 278 278 277 276 277 279 281 280 279 279
269 268 270 272 272 273 275 276 277 277 276 276 276 274 272 272 271 271 272 272 271 269 268 269 271 272 274 276 278 277 278 280 279 278 278 277 277 278 279 280 281 281 280
Height
5871 5870 5870 5870 5870 5870 5870 5870 5869 5869 5869 5869 5869 5869 5868 5868 5868 5867 5867 5867 5866 5866 5867 5867 5868 5868 5868 5868 5869 5870 5870 5871 5871 5872 5872 5873 5873 5873 5873 5874 5874 5874 5874
5870 5869 5869 5868 5869 5869 5868 5868 5869 5869 5868 5868 5868 5868 5868 5867 5867 5866 5866 5866 5866 5865 5866 5866 5866 5866 5867 5867 5868 5868 5868 5868 5868 5869 5870 5870 5870 5870 5871 5871 5871 5871 5872
5869 5868 5868 5867 5867 5867 5867 5867 5867 5867 5867 5867 5867 5867 5867 5866 5866 5865 5865 5865 5865 5865 5865 5865 5865 5866 5865 5865 5866 5866 5866 5866 5866 5867 5867 5867 5867 5868 5868 5868 5868 5868 5869
5868 5867 5867 5866 5866 5866 5866 5866 5866 5866 5866 5866 5866 5866 5865 5865 5864 5864 5864 5864 5863 5863 5863 5863 5864 5864 5864 5864 5864 5864 5864 5864 5864 5864 5864 5864 5864 5864 5865 5865 5865 5865 5865
5866 5866 5865 5865 5864 5865 5865 5865 5865 5865 5865 5864 5864 5864 5864 5863 5863 5862 5862 5862 5862 5862 5862 5862 5862 5862 5862 5862 5862 5861 5861 5861 5861 5861 5861 5861 5861 5861 5861 5861 5862 5862 5862
5865 5864 5864 5863 5863 5863 5863 5863 5863 5863 5863 5863 5863 5862 5862 5862 5861 5861 5861 5860 5860 5860 5860 5860 5860 5860 5860 5860 5860 5859 5859 5859 5859 5858 5858 5858 5858 5858 5858 5858 5858 5858 5858
5863 5863 5862 5861 5861 5861 5861 5861 5861 5861 5861 5861 5861 5860 5860 5859 5859 5859 5859 5859 5859 5858 5858 5858 5858 5858 5858 5858 5857 5857 5856 5856 5856 5855 5855 5855 5854 5854 5854 5854 5854 5854 5854
5861 5861 5860 5860 5859 5859 5859 5858 5858 5858 5858 5858 5858 5858 5858 5858 5857 5857 5857 5857 5857 5857 5856 5856 5856 5855 5855 5855 5855 5854 5854 5853 5853 5852 5852 5851 5850 5851 5850 5850 5850 5850 5850
5859 5858 5858 5857 5857 5856 5856 5856 5856 5856 5856 5856 5855 5855 5855 5855 5855 5855 5854 5854 5854 5854 5854 5853 5853 5852 5852 5852 5851 5851 5851 5850 5849 5849 5848 5848 5847 5846 5846 5846 5845 5845 5845
5856 5856 5855 5854 5854 5853 5853 5853 5853 5853 5853 5853 5853 5852 5852 5851 5851 5852 5852 5851 5851 5851 5851 5850 5850 5849 5849 5848 5848 5847 5847 5846 5846 5845 5844 5843 5843 5842 5842 5841 5841 5841 5841
5853 5853 5852 5851 5851 5850 5850 5849 5849 5850 5850 5850 5849 5849 5849 5848 5848 5848 5848 5848 5847 5847 5847 5847 5846 5846 5845 5845 5844 5844 5843 5842 5842 5841 5840 5839 5838 5838 5837 5837 5837 5836 5836
5850 5849 5848 5848 5847 5847 5846 5846 5846 5846 5846 5846 5846 5846 5846 5845 5845 5845 5844 5844 5844 5843 5843 5842 5842 5842 5841 5841 5840 5839 5839 5838 5837 5837 5836 5834 5834 5833 5833 5832 5832 5832 5832
5846 5845 5845 5844 5843 5843 5842 5842 5842 5842 5842 5842 5842 5842 5842 5842 5841 5841 5840 5840 5840 5839 5839 5838 5838 5837 5836 5836 5835 5835 5834 5833 5832 5832 5831 5830 5829 5828 5828 5827 5827 5827 5827
5842 5841 5840 5839 5839 5838 5837 5838 5838 5838 5838 5838 5838 5838 5838 5838 5837 5837 5836 5836 5835 5835 5835 5834 5833 5832 5832 5831 5830 5829 5828 5828 5827 5827 5826 5825 5824 5823 5822 5822 5822 5821 5821
5837 5837 5836 5835 5835 5834 5833 5833 5833 5833 5833 5833 5833 5833 5833 5833 5832 5832 5831 5831 5831 5830 5830 5829 5828 5827 5826 5825 5825 5824 5823 5823 5822 5822 5821 5820 5819 5818 5817 5816 5816 5816 5815
5832 5831 5830 5830 5829 5829 5828 5828 5828 5828 5828 5828 5828 5828 5827 5827 5827 5826 5826 5825 5824 5824 5824 5823 5822 5822 5821 5820 5819 5818 5817 5817 5817 5816 5815 5814 5813 5812 5812 5811 5811 5810 5810
5826 5826 5825 5824 5824 5823 5823 5822 5822 5822 5822 5822 5822 5822 5822 5821 5821 5820 5820 5819 5819 5818 5818 5817 5817 5816 5815 5814 5813 5812 5812 5811 5811 5810 5809 5808 5808 5807 5806 5806 5805 5804 5804
5820 5820 5819 5818 5817 5817 5816 5816 5816 5816 5815 5815 5815 5815 5815 5815 5814 5814 5813 5813 5812 5812 5811 5811 5810 5810 5809 5808 5807 5806 5805 5805 5804 5804 5803 5802 5802 5801 5800 5800 5799 5798 5798
5814 5813 5812 5811 5810 5810 5809 5809 5808 5808 5808 5808 5808 5808 5808 5807 5807 5807 5806 5806 5806 5805 5805 5804 5804 5803 5802 5801 5800 5799 5798 5798 5797 5797 5796 5795 5795 5794 5794 5793 5792 5791 5791
5807 5806 5805 5804 5803 5802 5802 5801 5801 5801 5801 5800 5800 5800 5800 5799 5799 5799 5799 5799 5799 5798 5798 5797 5796 5796 5795 5794 5793 5792 5791 5791 5790 5790 5789 5788 5788 5787 5786 5786 5785 5785 5784
5799 5798 5798 5797 5796 5795 5795 5794 5794 5793 5793 5793 5792 5792 5791 5791 5791 5791 5791 5791 5791 5791 5790 5790 5789 5788 5788 5787 5786 5785 5784 5783 5783 5782 5781 5781 5780 5779 5779 5778 5778 5777 5776
5792 5791 5791 5790 5789 5789 5788 5787 5787 5786 5785 5785 5784 5784 5784 5783 5783 5783 5783 5783 5783 5783 5783 5782 5781 5781 5780 5779 5778 5777 5777 5776 5776 5775 5774 5773 5772 5771 5771 5770 5770 5769 5768
5785 5784 5784 5783 5782 5782 5781 5780 5779 5778 5778 5777 5776 5776 5776 5775 5775 5775 5775 5775 5775 5774 5774 5774 5773 5773 5772 5771 5771 5770 5769 5768 5767 5767 5766 5765 5765 5763 5762 5762 5761 5760 5759
5778 5777 5777 5776 5775 5774 5774 5773 5771 5771 5770 5769 5769 5768 5767 5767 5767 5766 5766 5766 5766 5766 5766 5766 5766 5765 5764 5764 5763 5762 5761 5760 5759 5758 5758 5757 5756 5755 5754 5753 5752 5751 5751
5770 5769 5769 5769 5768 5767 5766 5765 5764 5763 5762 5761 5760 5760 5759 5759 5759 5758 5758 5758 5758 5757 5757 5757 5757 5757 5756 5755 5754 5754 5752 5752 5751 5751 5749 5749 5748 5747 5746 5745 5744 5743 5742
5762 5762 5762 5761 5761 5760 5759 5758 5756 5755 5754 5754 5753 5752 5751 5750 5750 5749 5749 5749 5749 5749 5749 5748 5748 5748 5747 5747 5746 5745 5744 5743 5742 5742 5741 5740 5739 5738 5737 5736 5735 5734 5733